Location: D�pe
(52.6057°N, 8.1808°E)
Time: 06:52:39
(UTC+00:00)

CZ-4B R/B - Pass Details

Date: 29 October 2020
Orbit: 388 x 461 km, 97.6° (Epoch: 01 December)

Event Time Altitude Azimuth Distance (km) Brightness Sun altitude
Rises 17:05:41 0° 16° (NNE) 2,405 4.8 -10.1°
Reaches altitude 10° 17:07:44 10° 20° (NNE) 1,519 3.8 -10.4°
Maximum altitude 17:10:57 64° 102° (ESE) 466 1.2 -10.9°
Drops below altitude 10° 17:14:04 10° 185° (S) 1,466 4.2 -11.4°
Sets 17:16:01 0° 189° (S) 2,309 5.2 -11.7°
